Theta_e
296 297 296 296 296 296 296 296 296 299 299 298 297 296 294 293 293 292 292 291 290 291 290 290 290 290 290 290 290 290 291 292 292 293 293 294 294 295
295 296 295 295 296 296 295 295 295 296 298 296 295 294 293 292 291 291 291 291 291 291 290 290 289 289 290 290 290 290 290 291 291 291 292 293 293 294
295 295 295 295 295 295 295 295 295 294 295 293 293 293 292 291 291 290 291 291 292 291 291 290 289 289 289 289 289 289 290 290 290 291 292 291 291 292
294 294 294 294 295 294 294 294 294 292 291 291 292 292 291 291 290 290 291 291 291 292 290 290 290 290 289 290 290 290 289 290 290 290 291 291 291 291
293 293 293 294 294 293 293 293 292 290 290 290 291 291 291 290 290 290 291 291 291 291 291 291 291 291 291 291 291 290 290 289 289 289 289 289 289 289
293 293 293 292 291 291 291 291 290 290 290 290 290 291 290 290 289 290 290 291 291 291 291 291 291 291 291 291 291 290 288 288 288 288 288 288 287 287
292 292 292 289 288 288 288 289 289 289 289 289 290 289 290 289 289 289 290 290 291 291 291 291 291 291 291 291 291 288 287 287 287 287 287 287 286 287
292 292 292 291 290 289 288 286 286 287 288 288 288 289 289 288 288 288 289 290 291 291 291 291 291 291 290 291 289 287 287 286 286 286 286 286 286 286
292 292 292 291 291 289 289 289 289 288 287 287 288 288 288 288 287 288 289 289 290 290 291 291 290 290 290 291 289 287 287 286 285 285 285 285 286 287
291 291 291 291 289 286 288 290 290 289 288 287 287 287 287 286 287 288 288 289 289 290 291 289 289 290 290 290 289 287 287 285 285 285 286 286 287 287
291 291 289 289 286 285 288 289 289 288 287 286 286 286 286 287 287 288 289 289 289 289 291 288 289 289 289 289 289 287 287 286 286 286 286 287 287 287
291 291 289 287 285 285 287 289 288 286 286 286 287 287 287 288 289 289 288 289 289 290 289 287 288 288 289 289 289 287 287 286 286 287 287 287 287 287
291 291 290 287 285 285 286 287 285 285 286 287 287 287 287 288 288 288 289 289 289 289 288 286 286 286 288 289 288 287 287 286 287 286 286 286 286 286
290 290 289 286 285 285 286 285 286 286 286 286 287 287 287 288 288 288 289 288 289 288 288 287 287 287 287 288 288 287 288 286 287 286 286 286 286 286
288 286 286 285 285 288 287 286 286 287 286 287 287 286 287 288 288 289 289 287 288 287 288 286 286 286 287 287 287 287 288 287 287 286 286 285 285 285
288 289 287 287 288 288 288 287 287 287 286 287 287 286 286 287 288 288 288 287 287 287 287 286 286 286 286 286 286 287 288 287 287 287 286 285 284 284
286 289 289 289 288 288 287 287 287 287 287 286 286 286 286 286 287 288 288 287 287 286 286 286 287 288 285 284 285 285 287 287 286 287 287 285 284 283
288 290 289 289 288 287 287 287 286 286 286 286 286 285 285 286 286 288 288 287 287 286 286 286 286 288 288 286 283 283 286 287 286 286 286 285 284 283
289 289 289 288 288 287 286 286 286 286 286 286 285 285 285 285 286 287 288 287 286 286 286 286 286 286 288 287 285 282 284 285 287 287 286 285 284 282
288 289 288 288 287 287 286 286 285 286 286 285 285 285 285 285 286 287 288 288 286 286 286 286 285 285 286 285 285 284 282 283 285 287 287 286 285 285
289 288 288 287 287 286 285 285 285 285 285 285 285 284 284 285 286 287 288 287 286 286 286 286 285 285 286 286 286 285 284 282 281 282 284 287 287 285
289 288 288 287 286 286 285 285 285 285 285 285 284 284 284 285 286 287 288 287 286 286 286 285 285 286 285 285 285 285 284 284 283 281 281 281 283 286
289 288 287 286 286 285 285 285 285 284 284 284 283 283 284 285 286 286 288 287 287 286 286 286 286 286 285 285 285 285 285 284 284 283 281 281 281 280
Wind_Speed
8 8 7 8 8 9 9 10 11 8 11 14 22 21 23 24 25 27 29 30 34 31 30 29 33 33 32 30 30 31 31 30 30 29 29 30 31 30
7 8 8 9 8 9 10 9 10 13 8 23 23 22 24 24 25 28 30 31 28 29 32 32 35 32 32 32 31 30 29 28 28 29 29 30 29 30
9 8 9 9 9 10 11 11 12 14 17 24 22 23 24 25 28 28 27 28 29 31 30 35 32 31 35 32 29 28 27 27 28 29 29 29 29 29
8 8 9 10 10 11 12 13 13 14 16 22 23 24 24 25 27 29 28 28 28 28 33 29 28 35 32 29 29 28 25 25 28 28 28 28 29 29
8 8 9 10 11 13 13 14 15 16 17 19 24 23 23 24 29 27 27 27 27 29 26 27 32 30 31 27 27 22 24 28 29 29 26 26 28 27
7 7 8 9 11 14 14 14 15 17 17 18 20 22 22 25 25 28 28 27 29 25 26 31 29 28 27 27 21 25 29 28 27 27 27 26 26 25
7 6 7 10 14 15 13 15 16 16 17 18 20 20 23 26 26 27 26 27 30 24 30 29 29 27 25 24 21 27 29 28 28 27 26 26 25 24
7 7 8 8 12 14 14 13 12 14 16 18 20 21 23 23 25 27 26 26 19 27 32 29 27 28 27 17 27 30 28 29 28 28 27 26 24 24
6 7 8 9 11 15 14 14 13 14 14 18 21 22 23 24 26 27 26 25 24 28 27 25 28 25 24 17 29 30 29 31 27 28 26 26 24 21
6 6 8 9 12 14 15 15 15 14 16 17 18 20 20 22 20 22 24 25 24 25 18 19 27 27 21 17 24 30 29 31 28 28 27 26 21 18
6 6 7 9 14 14 14 16 16 17 18 18 20 20 21 20 21 20 20 21 21 24 13 24 21 25 16 15 23 29 29 32 30 29 28 29 20 18
6 6 10 10 14 11 12 14 17 19 19 21 21 19 18 17 17 17 21 21 20 12 18 19 19 21 9 14 23 31 30 31 30 30 28 30 23 21
6 6 6 13 13 9 9 13 15 18 18 18 19 19 19 17 20 19 18 20 20 13 19 15 14 18 11 16 19 29 27 31 32 31 28 28 29 25
5 6 7 12 12 9 10 15 16 15 17 17 17 18 20 21 22 20 19 19 15 12 15 14 13 18 13 11 16 24 21 30 30 29 30 29 28 30
5 7 9 10 11 9 13 15 14 14 16 16 17 19 20 20 19 18 17 17 12 12 10 15 14 17 16 13 15 22 21 22 28 27 29 32 31 30
8 6 8 8 10 10 11 12 13 13 14 15 17 19 19 18 18 19 18 18 14 15 13 15 10 11 19 16 16 18 20 13 23 22 25 29 29 30
5 5 6 7 10 10 11 12 13 15 15 16 18 19 18 17 17 17 16 16 14 15 16 18 15 6 8 21 15 19 18 18 20 22 18 22 27 28
3 5 6 7 9 10 12 13 13 15 16 16 17 17 17 16 17 17 13 14 14 14 14 15 18 14 3 11 26 22 17 13 16 16 18 18 22 24
4 4 5 6 8 9 10 12 14 15 15 15 16 17 17 16 15 15 14 14 12 12 11 12 13 13 8 7 7 29 18 14 12 12 13 14 15 20
6 5 5 6 8 9 9 10 12 14 15 15 17 17 17 15 14 14 15 12 12 10 9 11 12 11 10 7 8 12 26 20 14 10 9 9 11 13
7 6 6 6 7 8 8 9 12 12 14 15 15 17 17 14 13 13 13 11 10 8 9 10 10 10 8 6 7 10 11 21 23 18 13 4 8 14
8 7 6 6 6 7 8 9 11 13 14 15 16 16 15 13 12 13 11 9 8 7 7 7 8 8 9 9 8 8 10 10 15 22 23 20 9 6
10 8 6 5 6 7 7 8 10 12 12 13 14 14 14 12 11 12 8 7 6 7 7 6 6 7 7 7 8 8 8 9 9 13 17 20 20 19
Wind_Direction
34 25 19 6 4 357 350 348 336 323 324 337 334 334 332 330 328 327 325 324 324 325 328 326 327 326 327 326 323 322 320 317 317 317 316 315 314 311
31 24 16 5 355 353 348 339 330 322 310 325 329 329 331 328 328 328 326 326 327 326 327 327 330 327 327 325 323 322 321 319 318 317 317 316 315 313
25 16 10 2 359 353 345 339 334 331 314 315 324 329 332 331 331 331 330 329 328 326 329 331 331 332 327 329 328 326 324 323 322 320 321 321 318 316
15 11 5 2 357 349 344 340 335 329 322 315 323 330 333 334 333 331 331 331 329 328 330 332 333 332 335 334 334 333 331 329 327 325 320 320 320 320
9 7 1 357 351 349 346 340 336 329 324 319 320 329 331 337 334 332 334 333 334 333 336 336 333 333 333 336 338 340 337 329 330 328 325 326 324 323
5 1 355 353 350 350 346 343 337 331 328 326 324 327 331 336 333 333 335 339 335 338 339 337 335 335 335 345 348 348 344 341 337 334 333 331 328 327
355 350 337 349 351 353 349 338 336 333 332 328 327 328 333 338 336 331 331 335 337 342 338 338 337 337 345 347 354 350 353 350 345 342 341 338 337 336
348 343 343 346 349 344 336 334 331 330 329 330 327 327 330 331 329 328 328 334 333 341 337 338 343 341 347 351 356 354 355 354 352 353 352 352 349 349
342 340 345 343 345 340 336 340 339 336 333 328 323 326 325 326 324 325 330 328 330 329 338 335 343 341 347 355 354 355 358 357 357 357 357 356 358 12
330 338 347 344 334 345 342 339 339 335 333 331 324 319 320 323 323 322 322 328 331 339 346 338 339 339 345 357 355 359 3 2 5 5 5 8 18 37
326 329 347 347 329 344 345 337 334 332 335 331 331 331 329 331 330 324 329 332 333 336 358 345 336 335 333 344 357 5 9 14 13 15 20 22 36 43
329 333 320 331 341 342 345 339 333 334 334 336 339 340 338 334 337 339 335 329 329 328 350 348 338 349 327 347 357 7 10 19 19 25 32 33 40 47
322 324 318 317 341 342 356 341 336 333 332 334 337 340 340 342 342 343 340 335 328 336 345 354 338 344 339 328 351 3 10 22 24 30 39 39 41 48
318 320 314 313 341 340 352 348 350 343 337 335 341 340 336 340 341 342 346 346 345 348 346 353 344 348 343 343 355 359 11 28 27 31 37 42 47 46
304 314 342 343 342 342 340 348 348 343 340 339 340 338 335 334 338 345 351 352 352 350 349 359 3 7 7 353 353 0 5 20 31 34 43 43 42 40
324 323 327 341 344 348 345 345 344 342 340 340 337 334 333 336 342 350 354 354 355 358 358 357 353 5 15 10 8 2 18 30 27 36 44 47 46 46
318 321 328 333 339 341 342 341 342 345 346 343 340 336 336 338 343 347 355 354 354 352 356 357 353 311 42 32 14 5 11 29 32 32 39 40 41 39
303 311 324 330 335 336 337 338 342 343 343 340 339 336 334 336 339 339 350 357 351 348 351 355 356 355 191 49 24 13 11 15 29 31 39 42 38 38
274 297 310 320 325 328 330 335 335 337 338 339 338 336 335 333 336 334 342 356 352 348 353 1 6 7 15 24 25 22 14 4 11 38 41 45 50 47
256 277 298 313 320 324 325 328 331 335 338 336 337 335 336 332 335 337 342 355 353 352 4 11 14 12 14 9 8 25 24 28 16 8 23 44 46 44
250 260 280 302 311 317 315 321 326 330 330 332 333 335 337 334 334 336 337 355 353 1 9 9 2 2 345 21 26 28 25 29 40 38 13 348 49 40
244 249 264 288 299 309 308 316 325 331 332 333 331 332 336 333 335 333 340 351 354 2 7 4 11 19 30 33 27 28 28 32 34 39 47 49 35 36
233 237 250 268 290 300 305 313 321 326 328 328 327 328 331 332 334 338 340 343 351 356 358 4 13 26 29 29 26 29 25 33 37 44 47 52 59 63